Cortez, CO

5:21 PM MDT on April 26, 2018 (GMT -0600)
Cortez Municipal

Weather History for KCEZ - September, 2012

Change the Weather History Date:

Monday, September 24, 2012

  Actual Average Record
Temperature  
Mean Temperature 63 °F 57 °F  
Max Temperature 80 °F 75 °F 86 °F (2015)
Min Temperature 46 °F 39 °F 26 °F (2006)
Degree Days  
Heating Degree Days 2 8  
Month to date heating degree days 53 105  
Since 1 July heating degree days 54 117  
Cooling Degree Days 0 0  
Month to date cooling degree days 38 16  
Year to date cooling degree days 746 425  
Growing Degree Days 12 (Base 50)    
Moisture  
Dew Point 38 °F    
Average Humidity 52    
Maximum Humidity 83    
Minimum Humidity 20    
Precipitation  
Precipitation 0.01 in 0.05 in 0.01 in (2012)
Month to date precipitation 0.56 1.45  
Year to date precipitation 5.88 9.89  
Sea Level Pressure  
Sea Level Pressure 30.00 in    
Wind  
Wind Speed 7 mph (ENE)    
Max Wind Speed 23 mph    
Max Gust Speed 31 mph    
Visibility 10 miles    
Events Rain , Thunderstorm    
T = Trace of Precipitation, MM = Missing Value Source: NWS Daily Summary

Daily Weather History Graph

Daily Weather History Graph

Search for Another Location

Airport or City:

Astronomy

Sep. 24, 2012 Rise Set
Actual Time 7:04 AM MDT 7:07 PM MDT
Civil Twilight 6:38 AM MDT 7:33 PM MDT
Nautical Twilight 6:08 AM MDT 8:03 PM MDT
Astronomical Twilight 5:37 AM MDT 8:34 PM MDT
Moon 3:50 PM MDT (9/24) 1:30 AM MDT (9/24)
Length of Visible Light 12h 55m
Length of Day
12h 03m
Waxing Gibbous, 71% of the Moon is Illuminated
Sep 24
Waxing Gibbous
Sep 29
Full
Oct 8
Last Quarter
Oct 15
New
Oct 21
First Quarter

Hourly Weather History & Observations

Time (MDT) Temp. Dew Point Humidity Pressure Visibility Wind Dir Wind Speed Gust Speed Precip Events Conditions
12:53 AM 55.9 °F 34.0 °F 44% 30.02 in 10.0 mi ENE 4.6 mph - N/A   Scattered Clouds
1:53 AM 55.9 °F 35.1 °F 45% 30.03 in 10.0 mi NNE 4.6 mph - N/A   Clear
2:51 AM 62.6 °F 33.8 °F 34% 30.22 in 10.0 mi NE 5.8 mph - N/A   Mostly Cloudy
2:53 AM 61.0 °F 33.1 °F 35% 29.97 in 10.0 mi NNE 8.1 mph - N/A   Mostly Cloudy
3:53 AM 57.9 °F 34.0 °F 41% 29.98 in 10.0 mi Calm Calm - N/A   Scattered Clouds
4:53 AM 51.1 °F 35.1 °F 54% 30.01 in 10.0 mi Calm Calm - N/A   Clear
5:53 AM 48.0 °F 35.1 °F 61% 30.02 in 10.0 mi Calm Calm - N/A   Clear
6:53 AM 46.9 °F 35.1 °F 63% 30.04 in 10.0 mi ENE 3.5 mph - N/A   Clear
7:53 AM 54.0 °F 37.9 °F 55% 30.07 in 10.0 mi North - - N/A   Mostly Cloudy
8:53 AM 57.9 °F 39.9 °F 51% 30.07 in 10.0 mi ENE 5.8 mph - 0.00 in   Scattered Clouds
9:53 AM 69.1 °F 39.9 °F 35% 30.06 in 10.0 mi West 8.1 mph - N/A   Scattered Clouds
10:53 AM 66.9 °F 41.0 °F 39% 30.08 in 10.0 mi East 6.9 mph - 0.00 in   Mostly Cloudy
11:53 AM 70.0 °F 39.9 °F 33% 30.03 in 10.0 mi ENE 11.5 mph - N/A   Mostly Cloudy
12:53 PM 75.9 °F 37.0 °F 24% 29.98 in 10.0 mi Variable 5.8 mph - N/A   Scattered Clouds
1:53 PM 77.0 °F 35.1 °F 22% 29.94 in 10.0 mi SW 12.7 mph 21.9 mph N/A   Mostly Cloudy
2:53 PM 77.0 °F 33.1 °F 20% 29.88 in 10.0 mi Calm Calm - N/A   Scattered Clouds
3:53 PM 75.0 °F 34.0 °F 22% 29.88 in 10.0 mi SSW 12.7 mph 18.4 mph N/A Thunderstorm Partly Cloudy
4:53 PM 73.0 °F 37.0 °F 27% 29.93 in 10.0 mi South 20.7 mph 26.5 mph N/A Thunderstorm Mostly Cloudy
5:11 PM 71.6 °F 37.4 °F 29% 30.10 in 10.0 mi SSE 17.3 mph 24.2 mph N/A   Partly Cloudy
5:53 PM 70.0 °F 37.0 °F 30% 29.93 in 10.0 mi SSW 6.9 mph - N/A   Mostly Cloudy
6:53 PM 64.0 °F 39.9 °F 41% 29.98 in 10.0 mi NE 8.1 mph - N/A   Mostly Cloudy
7:53 PM 61.0 °F 44.1 °F 54% 29.98 in 10.0 mi NW 10.4 mph - 0.00 in Rain Light Rain
8:53 PM 57.9 °F 45.0 °F 62% 30.02 in 10.0 mi NNW 10.4 mph 17.3 mph 0.00 in   Overcast
9:53 PM 54.0 °F 48.0 °F 80% 29.97 in 10.0 mi East 8.1 mph - 0.01 in   Partly Cloudy
10:53 PM 53.1 °F 46.9 °F 80% 29.96 in 10.0 mi ENE 10.4 mph - N/A   Clear
11:53 PM 53.1 °F 48.0 °F 83% 29.98 in 10.0 mi Calm Calm - 0.00 in Rain Light Rain